Location: Great Snoring
(52.8667°N, 0.8833°E)
Time: 06:01:32
(UTC+00:00)

NOSS 7 (H) - Pass Details

Date: 19 May 2025
Orbit: 362 x 1534 km, 63.3° (Epoch: 18 June)

Event Time Altitude Azimuth Distance (km) Brightness Sun altitude
Rises 20:51:51 0° 312° (NW) 2,221 10.4 -7.3°
Reaches altitude 10° 20:53:49 10° 311° (NW) 1,359 8.6 -7.5°
Maximum altitude 20:56:42 80° 224° (SW) 388 4.0 -7.8°
Enters shadow 20:59:40 11° 138° (SE) 1,400 6.2 -8.1°
